CST,Max TemperatureF,Mean TemperatureF,Min TemperatureF,Max Dew PointF,MeanDew PointF,Min DewpointF,Max Humidity, Mean Humidity, Min Humidity, Max Sea Level PressureIn, Mean Sea Level PressureIn, Min Sea Level PressureIn, Max VisibilityMiles, Mean VisibilityMiles, Min VisibilityMiles, Max Wind SpeedMPH, Mean Wind SpeedMPH, Max Gust SpeedMPH,PrecipitationIn, CloudCover, Events, WindDirDegrees
2012-10-1,90,79,68,74,71,67,100,77,44,,,,14,8,6,7,3,,0.24,5,Rain-Thunderstorm,105
2012-10-2,89,78,68,75,72,69,100,83,55,,,,17,8,6,7,3,,1.22,6,Rain,82
2012-10-3,87,79,71,72,71,70,100,83,53,,,,10,7,6,12,5,,0.02,4,Thunderstorm,85
2012-10-4,86,76,67,75,70,66,96,86,61,,,,12,7,6,12,4,,0.35,5,Rain,123
2012-10-5,85,76,68,73,70,66,100,81,53,,,,12,7,6,4,1,,0.02,5,,158
2012-10-6,87,80,71,70,70,70,94,76,55,,,,6,6,6,6,3,,0.00,3,,81
2012-10-7,89,79,69,75,72,69,100,81,58,,,,12,8,6,5,2,,0.00,3,,71
2012-10-8,87,78,69,75,71,69,100,81,48,,,,17,8,6,5,1,,0.02,4,,160
2012-10-9,86,77,68,73,71,68,94,79,52,,,,12,7,6,12,3,,0.35,4,Rain-Thunderstorm,71
2012-10-10,86,78,71,75,72,70,100,85,58,,,,11,7,4,7,3,,0.01,7,Rain,85
2012-10-11,84,76,69,75,71,70,100,82,51,,,,12,7,6,6,1,,0.39,5,Rain,140
2012-10-12,87,77,67,72,64,-52,100,75,4,,,,9,6,6,12,3,,0.24,4,Thunderstorm,39
2012-10-13,85,77,69,75,72,70,100,83,66,,,,12,7,6,7,2,,0.08,4,,98
2012-10-14,85,76,68,74,71,68,100,84,56,,,,12,7,6,2,0,,0.47,4,,175
2012-10-15,87,77,67,72,69,66,100,76,47,,,,11,7,6,7,3,,0.00,3,,26
2012-10-16,87,76,64,73,69,64,100,76,50,,,,12,8,6,9,3,,0.00,4,,93
2012-10-17,88,77,66,72,69,64,96,72,44,,,,12,8,6,5,1,,0.00,1,,160
2012-10-18,89,79,69,72,71,67,100,73,44,,,,11,7,6,8,3,,0.02,4,,106
2012-10-19,90,82,71,75,71,68,100,73,39,,,,16,8,6,5,2,,0.20,4,Rain-Thunderstorm,77
2012-10-20,88,77,66,76,72,66,100,84,55,,,,12,8,6,9,3,,0.00,4,,101
2012-10-21,86,78,69,74,72,67,100,83,56,,,,12,7,6,4,1,,0.31,6,Rain-Thunderstorm,167
2012-10-22,87,78,69,73,71,70,100,84,54,,,,9,7,6,9,3,,0.08,5,Thunderstorm,167
2012-10-23,87,78,68,75,70,66,96,86,49,,,,16,7,6,5,2,,0.39,4,Rain,73
2012-10-24,87,76,64,75,70,64,100,85,57,,,,12,8,6,7,3,,0.00,4,,82
2012-10-25,86,78,70,73,71,68,96,81,54,,,,12,7,6,2,0,,0.00,4,,157
2012-10-26,89,76,64,70,68,64,100,74,38,,,,11,7,6,8,3,,0.00,3,,57
2012-10-27,89,78,67,75,70,66,96,75,47,,,,16,8,6,5,3,,0.00,3,,76
2012-10-28,88,76,64,72,67,57,100,76,45,29.97,29.97,29.97,16,7,0,7,2,,0.00,1,Fog,144
2012-10-29,88,76,64,70,68,64,100,78,46,,,,14,7,6,2,1,,0.00,2,,101
2012-10-30,83,74,66,70,68,66,100,80,50,,,,11,7,6,8,2,,0.04,4,,137
2012-10-31,86,75,64,70,67,63,100,80,46,,,,16,8,6,5,2,,0.00,4,,69